Location: Newark
(41.9000°N, 12.4833°E)
Time: 12:45:25
(UTC+00:00)

BEESAT - Visible Passes

Search period start: 19 May 2019 00:00
Search period end: 29 May 2019 00:00
Orbit: 701 x 708 km, 98.6° (Epoch: 18 May)

Date Brightness Start Highest point End Pass type
(mag) Time Alt. Az. Time Alt. Az. Time Alt. Az.
19 May ? 02:25:24 10° SE 02:29:35 31° ENE 02:33:48 10° N visible
20 May ? 01:35:30 10° ENE 01:35:57 10° ENE 01:36:24 10° NE visible
20 May ? 03:08:06 10° SSE 03:12:52 82° ENE 03:17:41 10° NNW visible
21 May ? 02:15:02 10° ESE 02:18:54 25° ENE 02:22:47 10° NNE visible
22 May ? 02:57:24 10° SSE 03:02:08 64° ENE 03:06:52 10° N visible
23 May ? 02:04:48 10° ESE 02:08:14 20° ENE 02:11:41 10° NNE visible
24 May ? 02:46:47 10° SE 02:51:23 49° ENE 02:56:01 10° N visible
25 May ? 01:54:43 10° E 01:57:35 16° ENE 02:00:27 10° NNE visible
26 May ? 02:36:15 10° SE 02:40:40 39° ENE 02:45:06 10° N visible
27 May ? 01:44:54 10° E 01:46:57 13° ENE 01:49:00 10° NE visible
28 May ? 02:25:48 10° SE 02:29:58 31° ENE 02:34:09 10° N visible
